Weather History for KTIW - December, 2013

Change the Weather History Date:

Tuesday, December 31, 2013

  Actual Average Record
Temperature  
Mean Temperature 44 °F -  
Max Temperature 45 °F - - ()
Min Temperature 42 °F - - ()
Degree Days  
Heating Degree Days 22    
Moisture  
Dew Point 41 °F    
Average Humidity 91    
Maximum Humidity 100    
Minimum Humidity 79    
Precipitation  
Precipitation 0.01 in - - ()
Sea Level Pressure  
Sea Level Pressure 30.31 in    
Wind  
Wind Speed 5 mph (SSW)    
Max Wind Speed 10 mph    
Max Gust Speed -    
Visibility 6 miles    
Events Fog , Rain    
T = Trace of Precipitation, MM = Missing Value Source: NWS Daily Summary

Daily Weather History Graph

Daily Weather History Graph

Search for Another Location

Airport or City:

Trip Planner

Search our weather history database for the weather conditions in past years. The results will help you decide how hot, cold, wet, or windy it might be!

Date:

Astronomy

Dec. 31, 2013 Rise Set
Actual Time 7:57 AM PST 4:30 PM PST
Civil Twilight 7:21 AM PST 5:05 PM PST
Nautical Twilight 6:42 AM PST 5:44 PM PST
Astronomical Twilight 6:05 AM PST 6:21 PM PST
Moon 6:52 AM PST 4:15 PM PST
Length of Visible Light 9h 43m
Length of Day
8h 32m
Waning Crescent, 1% of the Moon is Illuminated
Dec 31
Waning Crescent
Jan 1
New
Jan 7
First Quarter
Jan 15
Full
Jan 23
Last Quarter

Hourly Weather History & Observations

Time (PST) Temp. Windchill Dew Point Humidity Pressure Visibility Wind Dir Wind Speed Gust Speed Precip Events Conditions
12:53 AM 44.1 °F 39.5 °F 37.9 °F 79% 30.21 in 10.0 mi South 8.1 mph - 0.00 in Rain Light Rain
1:53 AM 44.1 °F 41.5 °F 37.9 °F 79% 30.21 in 10.0 mi South 4.6 mph - 0.00 in   Overcast
2:53 AM 44.1 °F 40.1 °F 37.9 °F 79% 30.21 in 10.0 mi South 6.9 mph - N/A   Overcast
3:53 AM 44.1 °F 40.8 °F 39.0 °F 82% 30.22 in 10.0 mi South 5.8 mph - N/A   Overcast
4:30 AM 44.6 °F 40.7 °F 39.2 °F 81% 30.20 in 10.0 mi South 6.9 mph - N/A   Overcast
4:53 AM 44.1 °F 39.5 °F 37.9 °F 79% 30.21 in 10.0 mi SSW 8.1 mph - N/A   Overcast
5:24 AM 44.6 °F 39.7 °F 39.2 °F 81% 30.20 in 10.0 mi South 9.2 mph - N/A   Overcast
5:53 AM 44.1 °F 39.5 °F 39.0 °F 82% 30.22 in 10.0 mi South 8.1 mph - N/A   Overcast
6:48 AM 42.8 °F 37.0 °F 39.2 °F 87% 30.22 in 10.0 mi South 10.4 mph - N/A   Overcast
6:53 AM 43.0 °F 37.7 °F 39.0 °F 86% 30.23 in 10.0 mi South 9.2 mph - N/A   Overcast
7:09 AM 42.8 °F 37.5 °F 39.2 °F 87% 30.22 in 10.0 mi South 9.2 mph - N/A   Overcast
7:53 AM 43.0 °F 40.3 °F 39.9 °F 89% 30.25 in 10.0 mi SSW 4.6 mph - N/A   Overcast
8:24 AM 44.6 °F 40.2 °F 39.2 °F 81% 30.24 in 10.0 mi South 8.1 mph - N/A   Overcast
8:53 AM 44.1 °F 39.5 °F 39.9 °F 85% 30.26 in 10.0 mi SSW 8.1 mph - N/A   Overcast
9:53 AM 44.1 °F 38.6 °F 39.9 °F 85% 30.27 in 10.0 mi South 10.4 mph - N/A   Overcast
10:45 AM 44.6 °F 41.4 °F 41.0 °F 87% 30.29 in 1.0 mi SSW 5.8 mph - N/A   Overcast
10:53 AM 44.1 °F 40.1 °F 41.0 °F 89% 30.30 in 1.0 mi South 6.9 mph - N/A   Overcast
11:53 AM 44.1 °F 40.1 °F 43.0 °F 96% 30.29 in 1.0 mi South 6.9 mph - N/A   Overcast
12:53 PM 44.1 °F 40.8 °F 43.0 °F 96% 30.29 in 1.0 mi South 5.8 mph - N/A   Overcast
1:00 PM 44.6 °F 40.2 °F 42.8 °F 93% 30.29 in 6.0 mi South 8.1 mph - N/A   Overcast
1:53 PM 45.0 °F 43.5 °F 43.0 °F 93% 30.30 in 3.0 mi SSW 3.5 mph - N/A   Overcast
2:00 PM 44.6 °F - 42.8 °F 93% 30.29 in 8.0 mi Calm Calm - N/A   Overcast
2:48 PM 44.6 °F - 42.8 °F 93% 30.30 in 1.0 mi Calm Calm - N/A   Overcast
2:53 PM 45.0 °F - 43.0 °F 93% 30.30 in 1.0 mi Calm Calm - N/A   Overcast
3:53 PM 45.0 °F - 43.0 °F 93% 30.32 in 0.8 mi Calm Calm - 0.01 in   Overcast
4:53 PM 45.0 °F 43.5 °F 43.0 °F 93% 30.34 in 0.8 mi NNW 3.5 mph - 0.00 in Rain Light Rain
4:59 PM 44.6 °F - 42.8 °F 93% 30.33 in 4.0 mi Calm Calm - 0.00 in Rain Light Rain
5:12 PM 44.6 °F 43.1 °F 42.8 °F 93% 30.34 in 7.0 mi NW 3.5 mph - 0.00 in   Overcast
5:53 PM 44.1 °F - 42.1 °F 93% 30.35 in 10.0 mi Calm Calm - 0.00 in   Overcast
6:53 PM 44.1 °F 41.5 °F 42.1 °F 93% 30.35 in 10.0 mi NE 4.6 mph - N/A   Overcast
7:53 PM 44.1 °F - 43.0 °F 96% 30.36 in 10.0 mi Calm Calm - N/A   Overcast
8:32 PM 44.6 °F - 42.8 °F 93% 30.36 in 6.0 mi Calm Calm - N/A   Overcast
8:53 PM 45.0 °F - 42.1 °F 90% 30.37 in 7.0 mi Calm Calm - N/A   Overcast
9:35 PM 44.6 °F 43.1 °F 42.8 °F 93% 30.36 in 1.8 mi West 3.5 mph - N/A   Overcast
9:43 PM 44.6 °F - 42.8 °F 93% 30.37 in 0.5 mi Calm Calm - N/A Fog Fog
9:53 PM 44.1 °F 42.5 °F 42.1 °F 93% 30.38 in 2.0 mi WNW 3.5 mph - N/A   Overcast
10:01 PM 44.6 °F 43.1 °F 42.8 °F 93% 30.37 in 5.0 mi NW 3.5 mph - N/A   Overcast
10:11 PM 44.6 °F - 42.8 °F 93% 30.37 in 1.8 mi Calm Calm - N/A   Overcast
10:21 PM 42.8 °F 41.1 °F 42.8 °F 100% 30.37 in 0.8 mi NNW 3.5 mph - N/A   Overcast
10:28 PM 42.8 °F 41.1 °F 42.8 °F 100% 30.37 in 2.0 mi NW 3.5 mph - N/A   Overcast
10:38 PM 42.8 °F - 42.8 °F 100% 30.37 in 5.0 mi Calm Calm - N/A   Overcast
10:53 PM 43.0 °F - 42.1 °F 97% 30.38 in 4.0 mi Calm Calm - N/A   Overcast
11:07 PM 42.8 °F - 42.8 °F 100% 30.38 in 1.8 mi Calm Calm - N/A   Mostly Cloudy
11:12 PM 42.8 °F - 42.8 °F 100% 30.38 in 0.5 mi Calm Calm - N/A Fog Fog
11:29 PM 42.8 °F 41.1 °F 41.0 °F 93% 30.38 in 1.2 mi North 3.5 mph - N/A   Overcast
11:40 PM 42.8 °F - 41.0 °F 93% 30.37 in 0.8 mi Calm Calm - N/A   Overcast
11:53 PM 43.0 °F - 42.1 °F 97% 30.38 in 0.5 mi Calm Calm - N/A Fog Fog